DLH5TP EDDF-EDDL

Flight info

Callsign DLH5TP
Flight time 0h 26m
Altitude 22000
Route MARUN6E/07C MARUN Y152 ARPEG Z850 ADEMI T854 DOMUX DOMUX2G
Aircraft A320/M-SDE3FGHIRWY/LB1

Departure

Time 2026-04-14 16:20
Airport Frankfurt Main Airport (EDDF)

Arrival

Time 2026-04-14 16:47
Airport Düsseldorf Airport (EDDL)
Time Latitude Longitude Altitude Speed Heading
2026-04-14 15:36 50.04542 8.56226 368 ft 0 kts 39°
2026-04-14 16:07 50.04534 8.56216 363 ft 4 kts 26°
2026-04-14 16:07 50.04511 8.56215 361 ft 4 kts 341°
2026-04-14 16:08 50.04486 8.56220 363 ft 4 kts 28°
2026-04-14 16:08 50.04473 8.56204 363 ft 4 kts 63°
2026-04-14 16:08 50.04465 8.56174 363 ft 4 kts 70°
2026-04-14 16:08 50.04456 8.56135 365 ft 4 kts 70°
2026-04-14 16:09 50.04447 8.56097 364 ft 2 kts 70°
2026-04-14 16:09 50.04447 8.56094 363 ft 0 kts 70°
2026-04-14 16:11 50.04449 8.56099 364 ft 3 kts 59°
2026-04-14 16:11 50.04474 8.56109 364 ft 1 kts 346°
2026-04-14 16:11 50.04470 8.56085 364 ft 5 kts 223°
2026-04-14 16:12 50.04427 8.56040 365 ft 8 kts 217°
2026-04-14 16:12 50.04382 8.56032 363 ft 6 kts 159°
2026-04-14 16:12 50.04342 8.56055 363 ft 6 kts 159°
2026-04-14 16:12 50.04300 8.56094 364 ft 8 kts 130°
2026-04-14 16:13 50.04292 8.56175 361 ft 10 kts 95°
2026-04-14 16:13 50.04235 8.56242 363 ft 10 kts 160°
2026-04-14 16:13 50.04169 8.56280 361 ft 11 kts 160°
2026-04-14 16:13 50.04107 8.56196 360 ft 14 kts 251°
2026-04-14 16:14 50.04065 8.56020 364 ft 18 kts 250°
2026-04-14 16:14 50.04019 8.55825 363 ft 20 kts 249°
2026-04-14 16:14 50.03968 8.55614 360 ft 21 kts 249°
2026-04-14 16:14 50.03915 8.55394 361 ft 23 kts 249°
2026-04-14 16:15 50.03858 8.55152 362 ft 22 kts 249°
2026-04-14 16:15 50.03802 8.54920 365 ft 24 kts 249°
2026-04-14 16:15 50.03739 8.54666 362 ft 25 kts 249°
2026-04-14 16:15 50.03683 8.54428 362 ft 22 kts 249°
2026-04-14 16:16 50.03659 8.54320 361 ft 8 kts 248°
2026-04-14 16:16 50.03620 8.54303 359 ft 6 kts 161°
2026-04-14 16:16 50.03576 8.54328 362 ft 5 kts 159°
2026-04-14 16:16 50.03572 8.54331 361 ft 0 kts 159°
2026-04-14 16:17 50.03570 8.54332 360 ft 0 kts 159°
2026-04-14 16:18 50.03552 8.54343 357 ft 10 kts 159°
2026-04-14 16:18 50.03486 8.54410 358 ft 10 kts 99°
2026-04-14 16:18 50.03502 8.54468 356 ft 0 kts 68°
2026-04-14 16:19 50.03515 8.54519 358 ft 22 kts 69°
2026-04-14 16:19 50.03669 8.55164 355 ft 100 kts 70°
2026-04-14 16:20 50.03983 8.56476 366 ft 156 kts 69°
2026-04-14 16:20 50.04368 8.58122 979 ft 160 kts 69°
2026-04-14 16:20 50.04750 8.59757 1814 ft 165 kts 67°
2026-04-14 16:20 50.05184 8.61548 2268 ft 187 kts 66°
2026-04-14 16:21 50.06021 8.63150 2719 ft 203 kts 31°
2026-04-14 16:21 50.07425 8.63727 3286 ft 219 kts 359°
2026-04-14 16:21 50.08936 8.63612 4326 ft 216 kts 357°
2026-04-14 16:21 50.10441 8.63478 5229 ft 221 kts 357°
2026-04-14 16:22 50.12061 8.63341 5713 ft 245 kts 358°
2026-04-14 16:22 50.13834 8.63202 6352 ft 262 kts 358°
2026-04-14 16:22 50.15680 8.63066 7221 ft 269 kts 358°
2026-04-14 16:22 50.17578 8.62929 8064 ft 277 kts 357°
2026-04-14 16:23 50.19532 8.62790 8884 ft 285 kts 357°
2026-04-14 16:23 50.21480 8.62652 9729 ft 292 kts 356°
2026-04-14 16:23 50.23535 8.62513 10450 ft 304 kts 356°
2026-04-14 16:23 50.25729 8.62364 10817 ft 326 kts 357°
2026-04-14 16:24 50.28032 8.62205 11501 ft 335 kts 357°
2026-04-14 16:24 50.30376 8.62044 12335 ft 339 kts 357°
2026-04-14 16:24 50.32752 8.61885 13157 ft 343 kts 357°
2026-04-14 16:24 50.35149 8.61794 14003 ft 347 kts 359°
2026-04-14 16:25 50.37581 8.61783 14719 ft 351 kts 360°
2026-04-14 16:25 50.40034 8.61812 15436 ft 354 kts
2026-04-14 16:25 50.42480 8.61850 16128 ft 358 kts
2026-04-14 16:25 50.45015 8.61952 16849 ft 362 kts
2026-04-14 16:26 50.47497 8.62320 17539 ft 365 kts
2026-04-14 16:26 50.50040 8.62689 18252 ft 369 kts
2026-04-14 16:26 50.52612 8.63052 18891 ft 373 kts
2026-04-14 16:26 50.55207 8.63412 19500 ft 376 kts
2026-04-14 16:27 50.57826 8.63773 20094 ft 380 kts
2026-04-14 16:27 50.60474 8.64142 20690 ft 384 kts
2026-04-14 16:27 50.63143 8.64520 21270 ft 387 kts
2026-04-14 16:27 50.65840 8.64907 21848 ft 391 kts
2026-04-14 16:28 50.68565 8.65298 22137 ft 394 kts
2026-04-14 16:28 50.71301 8.65688 22195 ft 395 kts
2026-04-14 16:28 50.74038 8.65872 22196 ft 393 kts 354°
2026-04-14 16:28 50.76687 8.64955 22199 ft 389 kts 336°
2026-04-14 16:29 50.79018 8.62842 22193 ft 386 kts 319°
2026-04-14 16:29 50.80822 8.59753 22193 ft 382 kts 302°
2026-04-14 16:29 50.82271 8.56228 22199 ft 382 kts 301°
2026-04-14 16:29 50.83712 8.52701 22200 ft 382 kts 301°
2026-04-14 16:30 50.85154 8.49176 22203 ft 382 kts 301°
2026-04-14 16:30 50.86600 8.45643 22200 ft 382 kts 301°
2026-04-14 16:30 50.88044 8.42116 22178 ft 382 kts 301°
2026-04-14 16:30 50.89488 8.38584 21870 ft 380 kts 301°
2026-04-14 16:31 50.90919 8.35071 21605 ft 379 kts 301°
2026-04-14 16:31 50.92343 8.31561 21349 ft 378 kts 301°
2026-04-14 16:31 50.93754 8.28075 21033 ft 372 kts 301°
2026-04-14 16:31 50.95142 8.24650 20584 ft 368 kts 301°
2026-04-14 16:32 50.96523 8.21241 20104 ft 366 kts 301°
2026-04-14 16:32 50.97898 8.17850 19633 ft 364 kts 301°
2026-04-14 16:32 50.99262 8.14477 19150 ft 363 kts 301°
2026-04-14 16:32 51.00621 8.11111 18678 ft 362 kts 301°
2026-04-14 16:33 51.01974 8.07751 18141 ft 361 kts 301°
2026-04-14 16:33 51.03322 8.04389 17665 ft 359 kts 301°
2026-04-14 16:33 51.04658 8.01060 17195 ft 357 kts 301°
2026-04-14 16:33 51.05990 7.97748 16730 ft 354 kts 301°
2026-04-14 16:34 51.07312 7.94454 16264 ft 352 kts 301°
2026-04-14 16:34 51.08627 7.91176 15796 ft 351 kts 301°
2026-04-14 16:34 51.09935 7.87908 15338 ft 349 kts 301°
2026-04-14 16:34 51.11238 7.84653 14879 ft 348 kts 301°
2026-04-14 16:35 51.12533 7.81405 14417 ft 347 kts 300°
2026-04-14 16:35 51.13822 7.78155 13930 ft 347 kts 300°
2026-04-14 16:35 51.15107 7.74911 13437 ft 346 kts 300°
2026-04-14 16:35 51.16388 7.71681 12975 ft 343 kts 300°
2026-04-14 16:36 51.17659 7.68474 12491 ft 341 kts 300°
2026-04-14 16:36 51.18922 7.65290 12005 ft 340 kts 300°
2026-04-14 16:36 51.20182 7.62113 11534 ft 338 kts 300°
2026-04-14 16:36 51.21430 7.58954 11049 ft 336 kts 300°
2026-04-14 16:37 51.22673 7.55800 10604 ft 334 kts 300°
2026-04-14 16:37 51.23888 7.52728 10473 ft 321 kts 300°
2026-04-14 16:37 51.25054 7.49774 10352 ft 309 kts 300°
2026-04-14 16:37 51.26177 7.46923 10221 ft 298 kts 300°
2026-04-14 16:38 51.27268 7.44143 9879 ft 295 kts 300°
2026-04-14 16:38 51.28338 7.41407 9522 ft 292 kts 300°
2026-04-14 16:38 51.29419 7.38646 9137 ft 291 kts 300°
2026-04-14 16:38 51.30476 7.35951 8750 ft 282 kts 300°
2026-04-14 16:39 51.31514 7.33307 8118 ft 279 kts 300°
2026-04-14 16:39 51.32538 7.30695 7492 ft 276 kts 300°
2026-04-14 16:39 51.33513 7.28196 6893 ft 272 kts 300°
2026-04-14 16:39 51.34507 7.25640 6249 ft 269 kts 301°
2026-04-14 16:40 51.35490 7.23114 5593 ft 266 kts 302°
2026-04-14 16:40 51.36460 7.20620 4940 ft 262 kts 302°
2026-04-14 16:40 51.37417 7.18158 4277 ft 259 kts 303°
2026-04-14 16:40 51.38340 7.15776 4002 ft 242 kts 303°
2026-04-14 16:41 51.39194 7.13566 3763 ft 229 kts 303°
2026-04-14 16:41 51.40026 7.11416 3516 ft 226 kts 303°
2026-04-14 16:41 51.40849 7.09278 3239 ft 224 kts 300°
2026-04-14 16:41 51.41349 7.06937 3040 ft 223 kts 279°
2026-04-14 16:42 51.41296 7.04438 3006 ft 227 kts 258°
2026-04-14 16:42 51.40691 7.02095 3010 ft 231 kts 237°
2026-04-14 16:42 51.39733 7.00033 3007 ft 228 kts 234°
2026-04-14 16:42 51.38803 6.98067 3012 ft 217 kts 233°
2026-04-14 16:43 51.37913 6.96184 3006 ft 207 kts 234°
2026-04-14 16:43 51.37056 6.94368 2844 ft 204 kts 234°
2026-04-14 16:43 51.36217 6.92596 2601 ft 194 kts 234°
2026-04-14 16:43 51.35424 6.90921 2348 ft 181 kts 234°
2026-04-14 16:44 51.34693 6.89378 2110 ft 165 kts 234°
2026-04-14 16:44 51.34034 6.87987 1901 ft 150 kts 235°
2026-04-14 16:44 51.33419 6.86690 1675 ft 144 kts 234°
2026-04-14 16:45 51.32238 6.84198 1263 ft 141 kts 234°
2026-04-14 16:45 51.31654 6.82968 1010 ft 138 kts 234°
2026-04-14 16:45 51.31083 6.81765 774 ft 135 kts 233°
2026-04-14 16:45 51.30521 6.80583 576 ft 133 kts 233°
2026-04-14 16:46 51.29969 6.79412 377 ft 131 kts 233°
2026-04-14 16:46 51.29417 6.78260 208 ft 130 kts 233°
2026-04-14 16:46 51.28898 6.77166 126 ft 108 kts 233°
2026-04-14 16:46 51.28554 6.76444 126 ft 57 kts 232°
2026-04-14 16:47 51.28394 6.76117 126 ft 28 kts 227°
2026-04-14 16:47 51.28280 6.76040 129 ft 14 kts 182°
2026-04-14 16:47 51.28216 6.76062 125 ft 3 kts 145°
2026-04-14 16:47 51.28207 6.76072 127 ft 0 kts 145°
2026-04-14 16:48 51.28205 6.76074 127 ft 2 kts 144°
2026-04-14 16:48 51.28186 6.76124 128 ft 9 kts 96°
2026-04-14 16:48 51.28231 6.76234 125 ft 13 kts 53°
2026-04-14 16:48 51.28285 6.76351 122 ft 13 kts 53°
2026-04-14 16:49 51.28341 6.76461 124 ft 13 kts 52°
2026-04-14 16:49 51.28392 6.76571 125 ft 12 kts 53°
2026-04-14 16:49 51.28440 6.76672 123 ft 11 kts 53°
2026-04-14 16:49 51.28457 6.76765 124 ft 8 kts 122°
2026-04-14 16:50 51.28413 6.76819 124 ft 7 kts 143°
2026-04-14 16:50 51.28373 6.76863 125 ft 8 kts 151°
2026-04-14 16:50 51.28324 6.76864 129 ft 6 kts 186°
2026-04-14 16:50 51.28262 6.76854 130 ft 9 kts 186°
2026-04-14 16:51 51.28186 6.76839 130 ft 13 kts 186°
2026-04-14 16:51 51.28107 6.76813 128 ft 8 kts 201°
2026-04-14 16:51 51.28103 6.76764 130 ft 4 kts 273°
2026-04-14 16:51 51.28105 6.76725 130 ft 2 kts 275°
2026-04-14 16:52 51.28106 6.76720 130 ft 0 kts 275°